• In Portugal
  • List of Countries
  • For 7 days
  • Water Temperature
  • Satellite Maps
  • Weather Map
  • Weather Widgets
  • user-avatar
    Login

    Hourly Weather Florianópolis

    Today, 23 August, Wednesday

    Time Temperature Precipitation Wind Pressure Humidity
    00:00 +16°C° 0.1 mm 5 mps 769 mmHg 96%
    01:00 +16°C° 0.2 mm 5 mps 768 mmHg 96%
    02:00 +16°C° 0.2 mm 5 mps 768 mmHg 96%
    03:00 +17°C° 0.2 mm 5 mps 768 mmHg 96%
    04:00 +17°C° 0.2 mm 5 mps 768 mmHg 96%
    05:00 +17°C° 0.2 mm 5 mps 768 mmHg 96%
    06:00 +17°C° 0.2 mm 5 mps 768 mmHg 96%
    07:00 +19°C° 0.2 mm 5 mps 768 mmHg 95%
    08:00 +19°C° 0.2 mm 5 mps 768 mmHg 95%
    09:00 +20°C° 0.2 mm 6 mps 768 mmHg 94%
    10:00 +20°C° 0.1 mm 6 mps 768 mmHg 93%
    11:00 +20°C° 0.1 mm 6 mps 768 mmHg 93%
    12:00 +21°C° 0.1 mm 6 mps 768 mmHg 92%
    13:00 +21°C° 0.1 mm 6 mps 767 mmHg 92%
    14:00 +21°C° 0.1 mm 6 mps 767 mmHg 92%
    15:00 +21°C° 0.1 mm 6 mps 766 mmHg 91%
    16:00 +21°C° 0.1 mm 5 mps 766 mmHg 92%
    17:00 +20°C° 0.1 mm 5 mps 766 mmHg 93%
    18:00 +20°C° 0.1 mm 5 mps 766 mmHg 94%
    19:00 +20°C° 0.1 mm 5 mps 767 mmHg 95%
    20:00 +20°C° 0.1 mm 5 mps 767 mmHg 96%
    21:00 +20°C° 0.1 mm 5 mps 767 mmHg 96%
    22:00 +20°C° 0.1 mm 5 mps 767 mmHg 96%
    23:00 +20°C° 0.1 mm 5 mps 768 mmHg 96%

    Tomorrow, 24 August, Thursday

    Time Temperature Precipitation Wind Pressure Humidity
    00:00 +20°C° 0.1 mm 5 mps 768 mmHg 96%
    01:00 +20°C° 0.1 mm 4 mps 767 mmHg 95%
    02:00 +20°C° 0.1 mm 4 mps 767 mmHg 95%
    03:00 +19°C° 0.1 mm 4 mps 767 mmHg 95%
    04:00 +19°C° 0.1 mm 4 mps 767 mmHg 95%
    05:00 +19°C° 0.1 mm 4 mps 767 mmHg 96%
    06:00 +19°C° 0.1 mm 4 mps 767 mmHg 96%
    07:00 +20°C° 0.1 mm 4 mps 767 mmHg 94%
    08:00 +20°C° 0.1 mm 4 mps 768 mmHg 92%
    09:00 +21°C° 0.1 mm 4 mps 768 mmHg 91%
    10:00 +22°C° 0 mm 4 mps 768 mmHg 87%
    11:00 +23°C° 0 mm 5 mps 767 mmHg 84%
    12:00 +25°C° 0 mm 5 mps 767 mmHg 81%
    13:00 +25°C° 0 mm 5 mps 766 mmHg 79%
    14:00 +25°C° 0 mm 5 mps 766 mmHg 78%
    15:00 +25°C° 0 mm 5 mps 765 mmHg 77%
    16:00 +23°C° 0 mm 5 mps 765 mmHg 81%
    17:00 +22°C° 0 mm 5 mps 765 mmHg 85%
    18:00 +21°C° 0 mm 5 mps 765 mmHg 89%
    19:00 +21°C° 0 mm 5 mps 766 mmHg 91%
    20:00 +20°C° 0 mm 5 mps 767 mmHg 93%
    21:00 +20°C° 0 mm 5 mps 767 mmHg 95%
    22:00 +20°C° 0.1 mm 5 mps 767 mmHg 95%
    23:00 +20°C° 0.1 mm 5 mps 767 mmHg 94%

    Day after tomorrow, 25 August, Friday

    Time Temperature Precipitation Wind Pressure Humidity
    00:00 +20°C° 0.1 mm 5 mps 767 mmHg 94%
    01:00 +20°C° 0.1 mm 5 mps 767 mmHg 94%
    02:00 +20°C° 0.1 mm 5 mps 766 mmHg 94%
    03:00 +20°C° 0.1 mm 5 mps 766 mmHg 95%
    04:00 +20°C° 0.1 mm 5 mps 766 mmHg 95%
    05:00 +20°C° 0.1 mm 5 mps 766 mmHg 95%
    06:00 +20°C° 0.1 mm 5 mps 766 mmHg 95%
    07:00 +20°C° 0 mm 5 mps 767 mmHg 93%
    08:00 +21°C° 0 mm 5 mps 767 mmHg 91%
    09:00 +21°C° 0 mm 5 mps 767 mmHg 89%
    10:00 +22°C° 0 mm 5 mps 767 mmHg 85%
    11:00 +23°C° 0 mm 5 mps 767 mmHg 80%
    12:00 +25°C° 0 mm 5 mps 766 mmHg 76%
    13:00 +25°C° 0 mm 5 mps 766 mmHg 73%
    14:00 +26°C° 0 mm 5 mps 765 mmHg 69%
    15:00 +26°C° 0 mm 5 mps 764 mmHg 66%
    16:00 +25°C° 0 mm 5 mps 764 mmHg 72%
    17:00 +22°C° 0 mm 5 mps 764 mmHg 78%
    18:00 +21°C° 0 mm 5 mps 765 mmHg 85%
    19:00 +21°C° 0.1 mm 5 mps 765 mmHg 88%
    20:00 +20°C° 0.1 mm 5 mps 765 mmHg 91%
    21:00 +20°C° 0.1 mm 5 mps 766 mmHg 95%
    22:00 +20°C° 0.1 mm 5 mps 766 mmHg 94%
    23:00 +20°C° 0.1 mm 5 mps 766 mmHg 94%

    26 August, Saturday

    Time Temperature Precipitation Wind Pressure Humidity
    00:00 +20°C° 0.1 mm 5 mps 765 mmHg 94%
    01:00 +19°C° 0.1 mm 5 mps 765 mmHg 94%
    02:00 +19°C° 0.1 mm 5 mps 765 mmHg 94%
    03:00 +19°C° 0.1 mm 5 mps 764 mmHg 94%
    04:00 +19°C° 0 mm 5 mps 764 mmHg 94%
    05:00 +19°C° 0 mm 5 mps 765 mmHg 95%
    06:00 +19°C° 0 mm 5 mps 765 mmHg 95%
    07:00 +19°C° 0 mm 5 mps 765 mmHg 92%
    08:00 +20°C° 0 mm 5 mps 765 mmHg 89%
    09:00 +21°C° 0 mm 5 mps 766 mmHg 87%
    10:00 +23°C° 0 mm 5 mps 765 mmHg 78%
    11:00 +25°C° 0 mm 5 mps 765 mmHg 70%
    12:00 +27°C° 0 mm 5 mps 764 mmHg 62%
    13:00 +28°C° 0 mm 5 mps 764 mmHg 60%
    14:00 +29°C° 0 mm 5 mps 763 mmHg 58%
    15:00 +30°C° 0 mm 6 mps 762 mmHg 57%
    16:00 +28°C° 0 mm 5 mps 762 mmHg 66%
    17:00 +26°C° 0 mm 5 mps 763 mmHg 76%
    18:00 +23°C° 0 mm 5 mps 763 mmHg 86%
    19:00 +22°C° 0 mm 5 mps 763 mmHg 89%
    20:00 +21°C° 0 mm 5 mps 763 mmHg 92%
    21:00 +21°C° 0 mm 5 mps 764 mmHg 95%
    22:00 +21°C° 0 mm 4 mps 764 mmHg 95%
    23:00 +20°C° 0 mm 4 mps 764 mmHg 95%

    27 August, Sunday

    Time Temperature Precipitation Wind Pressure Humidity
    00:00 +20°C° 0 mm 4 mps 764 mmHg 95%
    01:00 +20°C° 0 mm 4 mps 764 mmHg 95%
    02:00 +20°C° 0 mm 4 mps 763 mmHg 96%
    03:00 +20°C° 0 mm 3 mps 763 mmHg 96%
    04:00 +19°C° 0 mm 3 mps 763 mmHg 96%
    05:00 +19°C° 0 mm 3 mps 763 mmHg 96%
    06:00 +19°C° 0 mm 3 mps 764 mmHg 97%
    07:00 +20°C° 0 mm 3 mps 764 mmHg 90%
    08:00 +22°C° 0 mm 3 mps 764 mmHg 83%
    09:00 +25°C° 0 mm 3 mps 764 mmHg 76%
    10:00 +27°C° 0 mm 3 mps 764 mmHg 68%
    11:00 +29°C° 0 mm 3 mps 764 mmHg 60%
    12:00 +32°C° 0 mm 4 mps 764 mmHg 52%
    13:00 +32°C° 0 mm 4 mps 763 mmHg 55%
    14:00 +30°C° 0 mm 4 mps 763 mmHg 57%
    15:00 +30°C° 0 mm 4 mps 763 mmHg 60%
    16:00 +28°C° 0 mm 4 mps 763 mmHg 70%
    17:00 +26°C° 0 mm 3 mps 764 mmHg 80%
    18:00 +24°C° 0 mm 3 mps 764 mmHg 90%
    19:00 +23°C° 0 mm 2 mps 765 mmHg 93%
    20:00 +23°C° 0 mm 2 mps 765 mmHg 95%
    21:00 +21°C° 0 mm 2 mps 765 mmHg 97%
    22:00 +21°C° 0 mm 2 mps 765 mmHg 97%
    23:00 +20°C° 0 mm 2 mps 765 mmHg 97%

    28 August, Monday

    Time Temperature Precipitation Wind Pressure Humidity
    00:00 +20°C° 0 mm 2 mps 765 mmHg 98%
    01:00 +20°C° 0 mm 2 mps 765 mmHg 97%
    02:00 +20°C° 0 mm 2 mps 765 mmHg 97%
    03:00 +20°C° 0 mm 2 mps 764 mmHg 96%
    04:00 +20°C° 0 mm 3 mps 764 mmHg 96%
    05:00 +19°C° 0 mm 3 mps 765 mmHg 96%
    06:00 +19°C° 0 mm 3 mps 765 mmHg 96%
    07:00 +20°C° 0 mm 3 mps 765 mmHg 90%
    08:00 +22°C° 0 mm 3 mps 765 mmHg 85%
    09:00 +24°C° 0 mm 3 mps 765 mmHg 79%
    10:00 +26°C° 0 mm 3 mps 765 mmHg 70%
    11:00 +28°C° 0 mm 4 mps 765 mmHg 60%
    12:00 +30°C° 0 mm 4 mps 765 mmHg 51%
    13:00 +30°C° 0 mm 4 mps 764 mmHg 51%
    14:00 +30°C° 0 mm 4 mps 764 mmHg 51%
    15:00 +32°C° 0 mm 5 mps 763 mmHg 52%
    16:00 +28°C° 0 mm 4 mps 763 mmHg 62%
    17:00 +26°C° 0 mm 4 mps 763 mmHg 72%
    18:00 +23°C° 0 mm 4 mps 763 mmHg 82%
    19:00 +22°C° 0 mm 4 mps 764 mmHg 87%
    20:00 +20°C° 0 mm 3 mps 764 mmHg 91%
    21:00 +19°C° 0 mm 3 mps 764 mmHg 96%
    22:00 +19°C° 0 mm 3 mps 764 mmHg 96%
    23:00 +19°C° 0 mm 3 mps 764 mmHg 95%
    Show more